Weather observations for the past three days for
Myrtle Beach International Airport
Imperial (Metric)
Date Time (edt) Wind (mph) Vis. (mi.) Weather Sky Cond. Temperature (ºF) Relative Humidity Wind Chill (°F) Heat Index (°F) Pressure Precipitation (in)
Air Dwpt 6 hour altimeter (in) sea level (mb) 1 hr 3 hr 6 hr
Max. Min.
04 09:53 S 6 10.00 Mostly Cloudy BKN020 BKN026 86 78.1 77% 98 30.05 1017.5
04 08:53 Vrbl 5 10.00 A Few Clouds FEW016 84 79 85% 96 30.05 1017.6
04 07:53 N 3 10.00 Mostly Cloudy SCT016 BKN030 BKN034 81 79 81 78.1 94% 89 30.05 1017.4
04 06:53 Calm 10.00 Mostly Cloudy SCT016 BKN023 79 77 94% 83 30.04 1017.1
04 05:53 N 3 10.00 Mostly Cloudy SCT016 BKN022 79 78.1 97% 83 30.02 1016.6
04 04:53 Calm 10.00 Partly Cloudy FEW017 SCT022 79 78.1 97% 83 30.01 1016.2
04 03:53 Calm 10.00 Mostly Cloudy SCT016 BKN024 80.1 78.1 94% 86 30.01 1016.1
04 02:53 Calm 10.00 Mostly Cloudy BKN014 81 78.1 91% 89 30.02 1016.4
04 01:53 S 3 10.00 A Few Clouds FEW014 80.1 78.1 82.9 80.1 94% 86 30.03 1017.0
04 00:53 S 6 10.00 Fair CLR 81 78.1 91% 89 30.06 1017.7
03 23:53 S 7 10.00 Fair CLR 81 78.1 91% 89 30.06 1017.8
03 22:53 S 3 10.00 A Few Clouds FEW016 82 78.1 88% 91 30.06 1018.0
03 21:53 S 7 10.00 A Few Clouds FEW016 82 78.1 88% 91 30.06 1017.9
03 20:53 S 5 10.00 A Few Clouds FEW016 82 78.1 88% 91 30.04 1017.0
03 19:53 S 8 10.00 Partly Cloudy SCT015 82.9 78.1 87.1 82.9 85% 93 30.02 1016.6
03 18:53 SE 8 10.00 A Few Clouds FEW015 84 79 85% 96 30.03 1016.9
03 17:53 SE 10 10.00 A Few Clouds FEW015 86 79 80% 100 30.03 1016.9
03 16:53 SE 10 10.00 Fair CLR 86 78.1 77% 98 30.04 1017.2
03 15:53 SE 10 10.00 Fair CLR 87.1 77 72% 99 30.05 1017.6
03 14:53 SE 9 10.00 Fair CLR 86 78.1 77% 98 30.06 1017.9
03 13:53 SE 10 10.00 Fair CLR 86 78.1 87.1 79 77% 98 30.07 1018.3
03 12:53 SE 9 10.00 Fair CLR 86 79 80% 100 30.08 1018.6
03 11:53 SE 10 10.00 Fair CLR 86 78.1 77% 98 30.09 1018.8
03 10:53 SE 8 10.00 Mostly Cloudy FEW019 BKN050 86 78.1 77% 98 30.09 1018.8
03 09:53 Calm 10.00 Partly Cloudy SCT019 84 78.1 82% 95 30.08 1018.6
03 08:53 N 3 10.00 Fair CLR 82 78.1 88% 91 30.09 1018.7
03 07:53 N 3 10.00 Fair CLR 79 77 81 77 94% 83 30.09 1018.7
03 06:53 Calm 10.00 A Few Clouds FEW050 77 75.9 96% 78 30.06 1018.0
03 05:53 NW 3 10.00 Fair CLR 77 75.9 96% 78 30.06 1017.8
03 04:53 N 5 10.00 Fair CLR 77 75.9 96% 78 30.05 1017.5
03 03:53 Calm 10.00 Fair CLR 78.1 75.9 93% 81 30.04 1017.1
03 02:53 Calm 10.00 Fair CLR 79 75.9 90% 83 30.04 1017.0
03 01:53 S 5 10.00 Fair CLR 80.1 77 82.9 80.1 90% 86 30.04 1017.2
03 00:53 S 6 10.00 Fair CLR 82 77 85% 90 30.04 1017.2
02 23:53 S 8 10.00 Fair CLR 82 77 85% 90 30.03 1017.0
02 22:53 S 8 10.00 Fair CLR 82 78.1 88% 91 30.07 1018.2
02 21:53 S 8 10.00 Fair CLR 82 77 85% 90 30.08 1018.5
02 20:53 S 8 10.00 Fair CLR 82 77 85% 90 30.06 1017.8
02 19:53 S 8 10.00 Fair CLR 82.9 77 89.1 82.9 82% 92 30.04 1017.2
02 18:53 S 9 10.00 Fair CLR 84.9 77 77% 95 30.04 1017.1
02 17:53 S 12 10.00 Fair CLR 86 75.9 72% 96 30.03 1017.0
02 16:53 S 10 10.00 Fair CLR 87.1 75 67% 97 30.04 1017.3
02 15:53 S 13 10.00 Fair CLR 87.1 77 72% 99 30.06 1017.9
02 14:53 S 13 10.00 Fair CLR 89.1 78.1 70% 103 30.07 1018.2
02 13:53 S 10 10.00 Fair CLR 88 79 91 78.1 75% 103 30.07 1018.3
02 12:53 S 9 10.00 Fair CLR 89.1 78.1 70% 103 30.08 1018.6
02 11:53 Vrbl 3 10.00 Fair CLR 90 73 58% 98 30.09 1018.8
02 10:53 N 3 10.00 Fair CLR 88 71.1 57% 94 30.09 1018.8
02 09:53 Vrbl 3 10.00 Fair CLR 84.9 75 72% 93 30.09 1018.9
02 08:53 NW 3 9.00 Fair CLR 81 78.1 91% 89 30.1 1019.3
02 07:53 Vrbl 3 10.00 Fair CLR 78.1 77 79 75.9 97% 81 30.1 1019.2
02 06:53 NW 3 10.00 Fair CLR 75.9 75 97% 75 30.09 1018.9
02 05:53 Calm 10.00 Fair CLR 75.9 75.9 100% 75 30.08 1018.5
02 04:53 Calm 10.00 Fair CLR 77 75.9 96% 78 30.08 1018.4
02 03:53 NW 3 10.00 NULL NULL 75.9 75.9 100% 75 30.07 1018.1
02 02:53 N 3 10.00 Fair CLR 77 75.9 96% 78 30.07 1018.2
02 01:53 Calm 10.00 Fair CLR 79 75.9 82 79 90% 83 30.07 1018.2
02 00:53 S 3 10.00 Fair CLR 80.1 75.9 87% 85 30.07 1018.3
01 23:53 S 7 10.00 Fair CLR 80.1 77 90% 86 30.06 1018.0
01 22:53 S 7 10.00 Fair CLR 81 77 88% 88 30.06 1018.0
01 20:53 S 7 10.00 Fair CLR 81 75 82% 87 30.06 1017.8
01 19:53 S 8 10.00 Fair CLR 81 75 87.1 81 82% 87 30.05 1017.5
01 18:53 S 8 10.00 Fair CLR 84 75.9 77% 93 30.06 1017.9
01 17:53 S 9 10.00 Fair CLR 84.9 75.9 75% 94 30.06 1017.8
01 15:53 SE 9 10.00 Fair CLR 86 77 75% 97 30.06 1018.0
01 14:53 S 10 10.00 Fair CLR 86 78.1 77% 98 30.08 1018.4
01 13:53 SE 10 10.00 Fair CLR 87.1 77 89.1 75.9 72% 99 30.08 1018.7
01 12:53 SE 7 10.00 A Few Clouds FEW038 88 75 66% 98 30.09 1019.0
01 11:53 Vrbl 5 10.00 Fair CLR 89.1 73.9 61% 98 30.11 1019.4
01 10:53 N 8 10.00 Fair CLR 86 73.9 67% 94 30.12 1019.9
Date Time (edt) Wind (mph) Vis. (mi.) Weather Sky Cond. Air Dwpt Max. Min. Relative Humidity Wind Chill (°F) Heat Index (°F) altimeter (in) sea level (mb) 1 hr 3 hr 6 hr
6 hour
Temperature (ºF) Pressure Precipitation (in)